Location: Unspecified
(43.4354°N, 0.0000°E)
Time: 21:31:04
(UTC+00:00)

Transit 2A - Pass Details

Date: 18 June 2019
Orbit: 600 x 958 km, 66.7° (Epoch: 21 October)

Event Time Altitude Azimuth Distance (km) Brightness Sun altitude
Rises 09:42:28 0° 330° (NNW) 3,468 9.1 55.2°
Reaches altitude 10° 09:45:06 10° 333° (NNW) 2,474 8.5 55.6°
Maximum altitude 09:50:45 66° 56° (NE) 858 7.6 56.6°
Drops below altitude 10° 09:55:48 10° 138° (SE) 2,217 9.1 57.4°
Sets 09:58:03 0° 141° (SE) 3,080 9.6 57.8°
